Change the Weather History Date:

Tuesday, February 18, 2014

  Actual Average Record
Temperature  
Mean Temperature 69 °F 56 °F  
Max Temperature 74 °F 66 °F 85 °F (1922)
Min Temperature 63 °F 45 °F 20 °F (1910)
Degree Days  
Heating Degree Days 0 10  
Month to date heating degree days 270 208  
Since 1 July heating degree days 1624 1248  
Cooling Degree Days 4 1  
Month to date cooling degree days 5 16  
Year to date cooling degree days 5 29  
Growing Degree Days 18 (Base 50)    
Moisture  
Dew Point 62 °F    
Average Humidity 83    
Maximum Humidity 100    
Minimum Humidity 66    
Precipitation  
Precipitation 0.00 in 0.19 in 4.12 in (1988)
Month to date precipitation 4.36 3.35  
Year to date precipitation 6.45 9.07  
Snow  
Snow 0.00 in - - ()
Month to date snowfall T  
Since 1 July snowfall 0.4  
Snow Depth 0.00 in    
Sea Level Pressure  
Sea Level Pressure 30.10 in    
Wind  
Wind Speed 9 mph (South)    
Max Wind Speed 17 mph    
Max Gust Speed 22 mph    
Visibility 6 miles    
Events Fog    
T = Trace of Precipitation, MM = Missing Value Source: NWS Daily Summary

Daily Weather History Graph

Daily Weather History Graph

Search for Another Location

Airport or City:

Trip Planner

Search our weather history database for the weather conditions in past years. The results will help you decide how hot, cold, wet, or windy it might be!

Date:

Astronomy

Feb. 18, 2014 Rise Set
Actual Time 6:42 AM CST 5:55 PM CST
Civil Twilight 6:17 AM CST 6:19 PM CST
Nautical Twilight 5:49 AM CST 6:47 PM CST
Astronomical Twilight 5:21 AM CST 7:15 PM CST
Moon 9:29 PM CST (2/18) 8:31 AM CST (2/18)
Length of Visible Light 12h 01m
Length of Day
11h 12m
Waning Gibbous, 87% of the Moon is Illuminated
Feb 18
Waning Gibbous
Feb 22
Last Quarter
Mar 1
New
Mar 8
First Quarter
Mar 16
Full

Hourly Weather History & Observations

Time (CST) Temp. Dew Point Humidity Pressure Visibility Wind Dir Wind Speed Gust Speed Precip Events Conditions
12:53 AM 64.0 °F 62.1 °F 93% 30.12 in 10.0 mi SW 5.8 mph - N/A   Mostly Cloudy
1:15 AM 63.0 °F 61.0 °F 93% 30.13 in 8.0 mi South 3.5 mph - N/A   Mostly Cloudy
1:27 AM 63.0 °F 62.1 °F 97% 30.12 in 8.0 mi SSW 6.9 mph - N/A   Overcast
1:53 AM 63.0 °F 62.1 °F 97% 30.12 in 5.0 mi SSW 6.9 mph - N/A   Overcast
2:18 AM 63.0 °F 62.1 °F 97% 30.12 in 4.0 mi SW 4.6 mph - N/A   Overcast
2:42 AM 63.0 °F 62.1 °F 97% 30.11 in 2.5 mi South 4.6 mph - N/A   Overcast
2:51 AM 62.6 °F 62.6 °F 100% 30.11 in 1.5 mi South 4.6 mph - N/A   Overcast
2:53 AM 63.0 °F 62.1 °F 97% 30.11 in 1.2 mi South 4.6 mph - N/A   Overcast
3:13 AM 63.0 °F 62.1 °F 97% 30.11 in 3.0 mi SSW 4.6 mph - N/A   Overcast
3:53 AM 63.0 °F 62.1 °F 97% 30.10 in 3.0 mi SSW 3.5 mph - N/A   Overcast
4:16 AM 63.0 °F 62.1 °F 97% 30.10 in 2.0 mi SSW 5.8 mph - N/A   Overcast
4:53 AM 63.0 °F 62.1 °F 97% 30.10 in 1.0 mi South 6.9 mph - N/A   Overcast
5:00 AM 63.0 °F 62.1 °F 97% 30.11 in 0.5 mi South 6.9 mph - N/A Fog Fog
5:53 AM 63.0 °F 62.1 °F 97% 30.11 in 1.5 mi South 4.6 mph - N/A   Overcast
6:32 AM 63.0 °F 62.1 °F 97% 30.12 in 0.5 mi South 4.6 mph - N/A Fog Fog
6:53 AM 63.0 °F 62.1 °F 97% 30.12 in 0.5 mi SSE 5.8 mph - N/A Fog Fog
7:53 AM 63.0 °F 63.0 °F 100% 30.14 in 0.5 mi South 6.9 mph - N/A Fog Fog
8:45 AM 64.0 °F 63.0 °F 96% 30.15 in 2.0 mi South 8.1 mph - N/A   Overcast
8:53 AM 64.0 °F 63.0 °F 96% 30.15 in 2.0 mi South 8.1 mph - N/A   Overcast
9:53 AM 66.0 °F 63.0 °F 90% 30.16 in 2.0 mi SW 10.4 mph - N/A   Overcast
10:00 AM 66.0 °F 63.0 °F 90% 30.16 in 2.0 mi South 9.2 mph - N/A   Overcast
10:53 AM 69.1 °F 63.0 °F 81% 30.16 in 2.0 mi SSW 9.2 mph - N/A   Haze
11:00 AM 69.1 °F 62.1 °F 78% 30.16 in 9.0 mi SW 9.2 mph - N/A   Overcast
11:36 AM 72.0 °F 62.1 °F 71% 30.14 in 10.0 mi South 10.4 mph - N/A   Mostly Cloudy
11:53 AM 72.0 °F 62.1 °F 71% 30.13 in 10.0 mi SSE 10.4 mph - N/A   Overcast
12:00 PM 71.1 °F 62.1 °F 73% 30.13 in 10.0 mi SSE 9.2 mph - N/A   Mostly Cloudy
12:15 PM 70.0 °F 61.0 °F 73% 30.12 in 10.0 mi South 13.8 mph - N/A   Overcast
12:53 PM 73.0 °F 62.1 °F 68% 30.10 in 10.0 mi South 11.5 mph 20.7 mph N/A   Overcast
1:53 PM 72.0 °F 61.0 °F 68% 30.08 in 10.0 mi South 12.7 mph - N/A   Mostly Cloudy
2:53 PM 72.0 °F 60.1 °F 66% 30.06 in 10.0 mi SSE 10.4 mph - N/A   Mostly Cloudy
3:53 PM 72.0 °F 59.0 °F 64% 30.06 in 10.0 mi SSW 15.0 mph - N/A   Mostly Cloudy
4:53 PM 72.0 °F 60.1 °F 66% 30.05 in 10.0 mi South 10.4 mph - N/A   Mostly Cloudy
5:53 PM 70.0 °F 57.9 °F 65% 30.05 in 10.0 mi South 17.3 mph 20.7 mph N/A   Scattered Clouds
6:53 PM 68.0 °F 59.0 °F 73% 30.05 in 10.0 mi South 12.7 mph - N/A   Partly Cloudy
7:53 PM 64.9 °F 57.9 °F 78% 30.05 in 10.0 mi SSE 6.9 mph - N/A   Clear
8:53 PM 64.0 °F 60.1 °F 87% 30.06 in 10.0 mi SSE 8.1 mph - N/A   Partly Cloudy
9:53 PM 63.0 °F 61.0 °F 93% 30.05 in 10.0 mi South 5.8 mph - N/A   Partly Cloudy
10:43 PM 64.0 °F 62.1 °F 93% 30.04 in 10.0 mi South 8.1 mph - N/A   Partly Cloudy
10:53 PM 63.0 °F 62.1 °F 97% 30.04 in 10.0 mi South 8.1 mph - N/A   Mostly Cloudy
11:53 PM 64.9 °F 63.0 °F 93% 30.04 in 10.0 mi South 8.1 mph - N/A   Overcast